Notices

What's New in latest Release from April 7th, 2021:

- Updated Glossary, including Speed of Maximum Gust, and Total Hourly Precipitation

- Updated national and regional climate services offices contacts and prices information

- Addition of station inventory lists for 1981-2010, 1971-2000, and 1961-1990 Normals.

Please note that as of June 10, 2021 UTC dates are available for all years 2004-present, and DBA is working on populating the remaining years (2003 to 1953).

If you haven't already, please take our survey and provide feedback about our website: https://eccc.sondage-survey.ca/f/LanguageSelection.aspx?s=442ca660-fcf1-47c0-95a9-59707d6fd709

Hourly Data Report for August 15, 2003

TORONTO CITY
ONTARIO

43°40'00.000" N
79°24'00.000" W
112.50 m
6158355
71508
XTO

Download Data

Hourly Data (August 2003)
Hourly Data Report for August 15, 2003
TIME
LST
Temp Definition
°C
Dew Point Definition
°C
Rel Hum Definition
%
Precip. Amount Definition
mm

Wind Dir Definition
10's deg

Wind Spd Definition
km/h
Visibility Definition
km
Stn Press Definition
kPa
Hmdx Definition


Wind Chill Definition


Weather Definition


00:00 22.8 18.6 77   LegendMM LegendMM LegendMM 101.06 29   LegendNANA
01:00 21.9 18.8 83   LegendMM LegendMM LegendMM 101.02 29   LegendNANA
02:00 21.4 18.8 85   LegendMM LegendMM LegendMM 100.97 28   LegendNANA
03:00 21.0 18.7 87   LegendMM LegendMM LegendMM 100.95 28   LegendNANA
04:00 20.3 18.5 89   LegendMM LegendMM LegendMM 100.93 27   LegendNANA
05:00 19.9 18.2 90   LegendMM LegendMM LegendMM 100.94     LegendNANA
06:00 20.4 18.3 88   LegendMM LegendMM LegendMM 100.94 27   LegendNANA
07:00 22.6 18.5 78   LegendMM LegendMM LegendMM 100.92 29   LegendNANA
08:00 24.4 18.3 69   LegendMM LegendMM LegendMM 100.88 31   LegendNANA
09:00 26.9 19.9 66   LegendMM LegendMM LegendMM 100.82 34   LegendNANA
10:00 29.0 20.8 61   LegendMM LegendMM LegendMM 100.76 37   LegendNANA
11:00 28.9 20.6 61   LegendMM LegendMM LegendMM 100.71 37   LegendNANA
12:00 30.4 22.4 62   LegendMM LegendMM LegendMM 100.62 40   LegendNANA
13:00 31.5 19.5 49   LegendMM LegendMM LegendMM 100.53 39   LegendNANA
14:00 32.2 20.3 50   LegendMM LegendMM LegendMM 100.45 40   LegendNANA
15:00 30.9 20.7 55   LegendMM LegendMM LegendMM 100.37 39   LegendNANA
16:00 31.5 20.8 53   LegendMM LegendMM LegendMM 100.28 40   LegendNANA
17:00 30.9 21.3 57   LegendMM LegendMM LegendMM 100.20 40   LegendNANA
18:00 30.0 20.9 58   LegendMM LegendMM LegendMM 100.12 38   LegendNANA
19:00 29.1 20.4 59   LegendMM LegendMM LegendMM 100.10 37   LegendNANA
20:00 28.2 20.7 64   LegendMM LegendMM LegendMM 100.11 36   LegendNANA
21:00 27.6 21.2 68   LegendMM LegendMM LegendMM 100.12 36   LegendNANA
22:00 26.8 21.1 71   LegendMM LegendMM LegendMM 100.09 35   LegendNANA
23:00 26.2 21.3 74   LegendMM LegendMM LegendMM 100.05 35   LegendNANA

Notes on Data Quality.

Legend

  • E = Estimated
  • M = Missing
  • NA = Not Available*
  • [empty] = Indicates an unobserved value
Date modified: